Weather History for KCRP - January, 2012

Change the Weather History Date:

Saturday, January 21, 2012

  Actual Average Record
Temperature  
Mean Temperature 68 °F 57 °F  
Max Temperature 75 °F 67 °F 88 °F (1999)
Min Temperature 61 °F 47 °F 22 °F (1985)
Degree Days  
Heating Degree Days 0 9  
Month to date heating degree days 119 189  
Since 1 July heating degree days 432 540  
Cooling Degree Days 3 1  
Month to date cooling degree days 38 21  
Year to date cooling degree days 38 21  
Growing Degree Days 16 (Base 50)    
Moisture  
Dew Point 61 °F    
Average Humidity 84    
Maximum Humidity 100    
Minimum Humidity 68    
Precipitation  
Precipitation 0.00 in 0.05 in 1.02 in (1980)
Month to date precipitation 0.01 1.04  
Year to date precipitation 0.01 1.04  
Snow  
Snow 0.00 in - - ()
Month to date snowfall 0.0  
Since 1 July snowfall 0.0  
Snow Depth 0.00 in    
Sea Level Pressure  
Sea Level Pressure 29.90 in    
Wind  
Wind Speed 7 mph (ESE)    
Max Wind Speed 16 mph    
Max Gust Speed 18 mph    
Visibility 6 miles    
Events Fog    
T = Trace of Precipitation, MM = Missing Value Source: NWS Daily Summary

Daily Weather History Graph

Daily Weather History Graph

Search for Another Location

Airport or City:

Trip Planner

Search our weather history database for the weather conditions in past years. The results will help you decide how hot, cold, wet, or windy it might be!

Date:

Astronomy

Jan. 21, 2012 Rise Set
Actual Time 7:21 AM CST 6:01 PM CST
Civil Twilight 6:56 AM CST 6:26 PM CST
Nautical Twilight 6:27 AM CST 6:55 PM CST
Astronomical Twilight 5:59 AM CST 7:23 PM CST
Moon 5:49 AM CST (1/21) 4:41 PM CST (1/21)
Length of Visible Light 11h 30m
Length of Day
10h 40m
Waning Crescent, 3% of the Moon is Illuminated
Jan 21
Waning Crescent
Jan 23
New
Jan 30
First Quarter
Feb 7
Full
Feb 14
Last Quarter

Hourly Weather History & Observations

Time (CST) Temp. Dew Point Humidity Pressure Visibility Wind Dir Wind Speed Gust Speed Precip Events Conditions
12:51 AM 66.0 °F 63.0 °F 90% 29.87 in 9.0 mi SSE 6.9 mph - N/A   Partly Cloudy
1:51 AM 63.0 °F 62.1 °F 97% 29.87 in 9.0 mi SSE 5.8 mph - N/A   Partly Cloudy
2:03 AM 62.6 °F 60.8 °F 94% 29.87 in 9.0 mi SSE 5.8 mph - N/A   Partly Cloudy
2:28 AM 62.6 °F 60.8 °F 94% 29.88 in 2.5 mi SSE 4.6 mph - N/A   Scattered Clouds
2:35 AM 62.6 °F 60.8 °F 94% 29.87 in 0.8 mi SE 5.8 mph - N/A   Scattered Clouds
2:41 AM 62.6 °F 60.8 °F 94% 29.87 in 0.5 mi SE 5.8 mph - N/A Fog Fog
2:51 AM 62.1 °F 61.0 °F 96% 29.86 in 0.2 mi SE 5.8 mph - N/A Fog Fog
3:08 AM 60.8 °F 60.8 °F 100% 29.87 in 0.2 mi SE 5.8 mph - N/A Fog Fog
3:45 AM 62.6 °F 60.8 °F 94% 29.86 in 0.2 mi SSE 6.9 mph - N/A Fog Fog
3:51 AM 62.1 °F 61.0 °F 96% 29.86 in 0.2 mi SE 8.1 mph - N/A Fog Fog
4:47 AM 62.6 °F 62.6 °F 100% 29.87 in 0.5 mi SSE 5.8 mph - N/A Fog Fog
4:51 AM 63.0 °F 62.1 °F 97% 29.87 in 0.5 mi SSE 5.8 mph - N/A Fog Fog
4:57 AM 64.4 °F 62.6 °F 94% 29.87 in 4.0 mi SSE 6.9 mph - N/A   Mostly Cloudy
5:11 AM 64.4 °F 64.4 °F 100% 29.88 in 6.0 mi South 6.9 mph - N/A   Overcast
5:51 AM 64.9 °F 64.0 °F 97% 29.86 in 8.0 mi South 5.8 mph - N/A   Overcast
6:51 AM 66.9 °F 64.9 °F 93% 29.91 in 8.0 mi Calm Calm - N/A   Overcast
7:51 AM 68.0 °F 64.9 °F 90% 29.94 in 5.0 mi NNE 3.5 mph - N/A   Overcast
8:30 AM 69.8 °F 66.2 °F 88% 29.94 in 5.0 mi Calm Calm - N/A   Overcast
8:51 AM 69.1 °F 66.0 °F 90% 29.95 in 5.0 mi Calm Calm - N/A   Overcast
9:29 AM 69.8 °F 66.2 °F 88% 29.96 in 6.0 mi Calm Calm - N/A   Mostly Cloudy
9:51 AM 71.1 °F 66.0 °F 84% 29.97 in 7.0 mi SSW 3.5 mph - N/A   Mostly Cloudy
10:51 AM 72.0 °F 66.0 °F 81% 29.97 in 7.0 mi Calm Calm - N/A   Overcast
11:51 AM 73.9 °F 64.9 °F 73% 29.95 in 10.0 mi Calm Calm - N/A   Mostly Cloudy
12:51 PM 73.9 °F 66.0 °F 76% 29.94 in 9.0 mi North 6.9 mph - N/A   Overcast
1:49 PM 69.8 °F 60.8 °F 73% 29.92 in 9.0 mi North 13.8 mph - N/A   Overcast
1:51 PM 70.0 °F 61.0 °F 73% 29.92 in 9.0 mi North 12.7 mph - N/A   Mostly Cloudy
2:51 PM 70.0 °F 60.1 °F 71% 29.91 in 10.0 mi North 11.5 mph - N/A   Scattered Clouds
3:51 PM 69.1 °F 59.0 °F 70% 29.90 in 10.0 mi North 11.5 mph - N/A   Partly Cloudy
4:07 PM 69.8 °F 59.0 °F 68% 29.91 in 10.0 mi North 11.5 mph - N/A   Mostly Cloudy
4:51 PM 68.0 °F 57.9 °F 70% 29.91 in 10.0 mi North 10.4 mph - N/A   Overcast
5:51 PM 64.9 °F 57.0 °F 75% 29.90 in 10.0 mi NE 8.1 mph - N/A   Overcast
6:16 PM 64.4 °F 57.2 °F 77% 29.90 in 10.0 mi NE 9.2 mph - N/A   Overcast
6:51 PM 64.0 °F 57.0 °F 78% 29.90 in 10.0 mi NE 10.4 mph - N/A   Overcast
7:51 PM 64.0 °F 57.9 °F 80% 29.90 in 9.0 mi East 6.9 mph - N/A   Overcast
8:51 PM 64.0 °F 57.0 °F 78% 29.91 in 10.0 mi ENE 6.9 mph - N/A   Overcast
9:51 PM 64.0 °F 57.0 °F 78% 29.90 in 9.0 mi East 8.1 mph - N/A   Overcast
10:51 PM 64.0 °F 57.0 °F 78% 29.89 in 10.0 mi East 9.2 mph - N/A   Overcast
11:51 PM 64.9 °F 60.1 °F 84% 29.88 in 8.0 mi East 8.1 mph - N/A   Overcast